owner,sensor,date,latitude,longitude,vertical_datum,wind_speed,wind_to_direction,wind_speed_of_gust,qcFlag 
WAVCIS,ioos:station:WAVCIS:CSI15:1,2010-06-01T00:00:00Z,28.8332,-90.8320,10.0,2.959,193.0,,'11111222,11111222,99999999' 
WAVCIS,ioos:station:WAVCIS:CSI15:1,2010-06-01T01:00:00Z,28.8332,-90.8320,10.0,2.075,142.0,,'11111222,11111222,99999999' 
WAVCIS,ioos:station:WAVCIS:CSI15:1,2010-06-01T02:00:00Z,28.8332,-90.8320,10.0,4.536,159.0,,'11111222,11111222,99999999' 
WAVCIS,ioos:station:WAVCIS:CSI15:1,2010-06-01T03:00:00Z,28.8332,-90.8320,10.0,5.929,159.0,,'11111222,11111222,99999999' 
WAVCIS,ioos:station:WAVCIS:CSI15:1,2010-06-01T04:00:00Z,28.8332,-90.8320,10.0,5.815,153.0,,'11111222,11111222,99999999' 
WAVCIS,ioos:station:WAVCIS:CSI15:1,2010-06-01T05:00:00Z,28.8332,-90.8320,10.0,4.838,165.0,,'11111222,11111222,99999999' 
WAVCIS,ioos:station:WAVCIS:CSI15:1,2010-06-01T06:00:00Z,28.8332,-90.8320,10.0,5.09,166.0,,'11111222,11111222,99999999' 
WAVCIS,ioos:station:WAVCIS:CSI15:1,2010-06-01T07:00:00Z,28.8332,-90.8320,10.0,4.274,161.0,,'11111222,11111222,99999999' 
WAVCIS,ioos:station:WAVCIS:CSI15:1,2010-06-01T08:00:00Z,28.8332,-90.8320,10.0,2.806,184.0,,'11111222,11111222,99999999' 
WAVCIS,ioos:station:WAVCIS:CSI15:1,2010-06-01T09:00:00Z,28.8332,-90.8320,10.0,4.004,228.0,,'11111222,11111222,99999999' 
WAVCIS,ioos:station:WAVCIS:CSI15:1,2010-06-01T10:00:00Z,28.8332,-90.8320,10.0,2.716,228.0,,'11111222,11111222,99999999' 
WAVCIS,ioos:station:WAVCIS:CSI15:1,2010-06-01T11:00:00Z,28.8332,-90.8320,10.0,2.571,208.0,,'11111222,11111222,99999999' 
WAVCIS,ioos:station:WAVCIS:CSI15:1,2010-06-01T12:00:00Z,28.8332,-90.8320,10.0,1.955,193.0,,'11111222,11111222,99999999' 
WAVCIS,ioos:station:WAVCIS:CSI15:1,2010-06-01T13:00:00Z,28.8332,-90.8320,10.0,1.766,189.0,,'11111222,11111222,99999999' 
WAVCIS,ioos:station:WAVCIS:CSI15:1,2010-06-01T14:00:00Z,28.8332,-90.8320,10.0,0.998,240.0,,'11111222,11111222,99999999' 
WAVCIS,ioos:station:WAVCIS:CSI15:1,2010-06-01T15:00:00Z,28.8332,-90.8320,10.0,0.161,152.0,,'11111222,11111222,99999999' 
WAVCIS,ioos:station:WAVCIS:CSI15:1,2010-06-01T16:00:00Z,28.8332,-90.8320,10.0,1.391,155.0,,'11111222,11111222,99999999' 
WAVCIS,ioos:station:WAVCIS:CSI15:1,2010-06-01T17:00:00Z,28.8332,-90.8320,10.0,1.369,109.0,,'11111222,11111222,99999999' 
WAVCIS,ioos:station:WAVCIS:CSI15:1,2010-06-01T18:00:00Z,28.8332,-90.8320,10.0,2.041,115.0,,'11111222,11111222,99999999' 
WAVCIS,ioos:station:WAVCIS:CSI15:1,2010-06-01T19:00:00Z,28.8332,-90.8320,10.0,2.874,116.0,,'11111222,11111222,99999999' 
WAVCIS,ioos:station:WAVCIS:CSI15:1,2010-06-01T20:00:00Z,28.8332,-90.8320,10.0,3.784,155.0,,'11111222,11111222,99999999' 
WAVCIS,ioos:station:WAVCIS:CSI15:1,2010-06-01T21:00:00Z,28.8332,-90.8320,10.0,3.241,153.0,,'11111222,11111222,99999999' 
WAVCIS,ioos:station:WAVCIS:CSI15:1,2010-06-01T22:00:00Z,28.8332,-90.8320,10.0,3.351,152.0,,'11111222,11111222,99999999' 
WAVCIS,ioos:station:WAVCIS:CSI15:1,2010-06-01T23:00:00Z,28.8332,-90.8320,10.0,5.572,157.0,,'11111222,11111222,99999999' 
WAVCIS,ioos:station:WAVCIS:CSI15:1,2010-06-02T00:00:00Z,28.8332,-90.8320,10.0,4.976,149.0,,'11111222,11111222,99999999' 
WAVCIS,ioos:station:WAVCIS:CSI15:1,2010-06-02T01:00:00Z,28.8332,-90.8320,10.0,4.789,157.0,,'11111222,11111222,99999999' 
WAVCIS,ioos:station:WAVCIS:CSI15:1,2010-06-02T02:00:00Z,28.8332,-90.8320,10.0,3.905,173.0,,'11111222,11111222,99999999' 
WAVCIS,ioos:station:WAVCIS:CSI15:1,2010-06-02T03:00:00Z,28.8332,-90.8320,10.0,4.471,164.0,,'11111222,11111222,99999999' 
WAVCIS,ioos:station:WAVCIS:CSI15:1,2010-06-02T04:00:00Z,28.8332,-90.8320,10.0,6.216,155.0,,'11111222,11111222,99999999' 
WAVCIS,ioos:station:WAVCIS:CSI15:1,2010-06-02T05:00:00Z,28.8332,-90.8320,10.0,5.503,158.0,,'11111222,11111222,99999999' 
WAVCIS,ioos:station:WAVCIS:CSI15:1,2010-06-02T06:00:00Z,28.8332,-90.8320,10.0,4.147,158.0,,'11111222,11111222,99999999' 
WAVCIS,ioos:station:WAVCIS:CSI15:1,2010-06-02T07:00:00Z,28.8332,-90.8320,10.0,5.527,148.0,,'11111222,11111222,99999999' 
WAVCIS,ioos:station:WAVCIS:CSI15:1,2010-06-02T08:00:00Z,28.8332,-90.8320,10.0,5.134,164.0,,'11111222,11111222,99999999' 
WAVCIS,ioos:station:WAVCIS:CSI15:1,2010-06-02T09:00:00Z,28.8332,-90.8320,10.0,4.702,161.0,,'11111222,11111222,99999999' 
WAVCIS,ioos:station:WAVCIS:CSI15:1,2010-06-02T10:00:00Z,28.8332,-90.8320,10.0,5.777,146.0,,'11111222,11111222,99999999' 
WAVCIS,ioos:station:WAVCIS:CSI15:1,2010-06-02T11:00:00Z,28.8332,-90.8320,10.0,6.753,154.0,,'11111222,11111222,99999999' 
WAVCIS,ioos:station:WAVCIS:CSI15:1,2010-06-02T12:00:00Z,28.8332,-90.8320,10.0,5.19,118.0,,'11111222,11111222,99999999' 
WAVCIS,ioos:station:WAVCIS:CSI15:1,2010-06-02T13:00:00Z,28.8332,-90.8320,10.0,2.721,133.0,,'11111222,11111222,99999999' 
WAVCIS,ioos:station:WAVCIS:CSI15:1,2010-06-02T14:00:00Z,28.8332,-90.8320,10.0,10.8,206.0,,'11111222,11111222,99999999' 
WAVCIS,ioos:station:WAVCIS:CSI15:1,2010-06-02T15:00:00Z,28.8332,-90.8320,10.0,9.1,129.0,,'11111222,11111222,99999999' 
WAVCIS,ioos:station:WAVCIS:CSI15:1,2010-06-02T16:00:00Z,28.8332,-90.8320,10.0,9.3,166.0,,'11111222,11111222,99999999' 
WAVCIS,ioos:station:WAVCIS:CSI15:1,2010-06-02T17:00:00Z,28.8332,-90.8320,10.0,5.278,126.0,,'11111222,11111222,99999999' 
WAVCIS,ioos:station:WAVCIS:CSI15:1,2010-06-02T18:00:00Z,28.8332,-90.8320,10.0,10.3,159.0,,'11111222,11111222,99999999' 
WAVCIS,ioos:station:WAVCIS:CSI15:1,2010-06-02T19:00:00Z,28.8332,-90.8320,10.0,6.415,150.0,,'11111222,11111222,99999999' 
WAVCIS,ioos:station:WAVCIS:CSI15:1,2010-06-02T20:00:00Z,28.8332,-90.8320,10.0,11.13,186.0,,'11111222,11111222,99999999' 
WAVCIS,ioos:station:WAVCIS:CSI15:1,2010-06-02T21:00:00Z,28.8332,-90.8320,10.0,5.598,126.0,,'11111222,11111222,99999999' 
WAVCIS,ioos:station:WAVCIS:CSI15:1,2010-06-02T22:00:00Z,28.8332,-90.8320,10.0,7.32,119.0,,'11111222,11111222,99999999' 
WAVCIS,ioos:station:WAVCIS:CSI15:1,2010-06-02T23:00:00Z,28.8332,-90.8320,10.0,6.15,109.0,,'11111222,11111222,99999999' 
WAVCIS,ioos:station:WAVCIS:CSI15:1,2010-06-03T00:00:00Z,28.8332,-90.8320,10.0,6.534,134.0,,'11111222,11111222,99999999' 
WAVCIS,ioos:station:WAVCIS:CSI15:1,2010-06-03T01:00:00Z,28.8332,-90.8320,10.0,7.48,142.0,,'11111222,11111222,99999999' 
WAVCIS,ioos:station:WAVCIS:CSI15:1,2010-06-03T02:00:00Z,28.8332,-90.8320,10.0,7.48,149.0,,'11111222,11111222,99999999' 
WAVCIS,ioos:station:WAVCIS:CSI15:1,2010-06-03T03:00:00Z,28.8332,-90.8320,10.0,7.45,143.0,,'11111222,11111222,99999999' 
WAVCIS,ioos:station:WAVCIS:CSI15:1,2010-06-03T04:00:00Z,28.8332,-90.8320,10.0,6.349,114.0,,'11111222,11111222,99999999' 
WAVCIS,ioos:station:WAVCIS:CSI15:1,2010-06-03T05:00:00Z,28.8332,-90.8320,10.0,5.791,122.0,,'11111222,11111222,99999999' 
WAVCIS,ioos:station:WAVCIS:CSI15:1,2010-06-03T06:00:00Z,28.8332,-90.8320,10.0,7.86,127.0,,'11111222,11111222,99999999' 
WAVCIS,ioos:station:WAVCIS:CSI15:1,2010-06-03T07:00:00Z,28.8332,-90.8320,10.0,6.698,129.0,,'11111222,11111222,99999999' 
WAVCIS,ioos:station:WAVCIS:CSI15:1,2010-06-03T08:00:00Z,28.8332,-90.8320,10.0,6.954,142.0,,'11111222,11111222,99999999' 
WAVCIS,ioos:station:WAVCIS:CSI15:1,2010-06-03T09:00:00Z,28.8332,-90.8320,10.0,7.59,135.0,,'11111222,11111222,99999999' 
WAVCIS,ioos:station:WAVCIS:CSI15:1,2010-06-03T10:00:00Z,28.8332,-90.8320,10.0,7.84,125.0,,'11111222,11111222,99999999' 
WAVCIS,ioos:station:WAVCIS:CSI15:1,2010-06-03T11:00:00Z,28.8332,-90.8320,10.0,8.44,137.0,,'11111222,11111222,99999999' 
WAVCIS,ioos:station:WAVCIS:CSI15:1,2010-06-03T12:00:00Z,28.8332,-90.8320,10.0,9.3,146.0,,'11111222,11111222,99999999' 
WAVCIS,ioos:station:WAVCIS:CSI15:1,2010-06-03T13:00:00Z,28.8332,-90.8320,10.0,9.08,138.0,,'11111222,11111222,99999999' 
WAVCIS,ioos:station:WAVCIS:CSI15:1,2010-06-03T14:00:00Z,28.8332,-90.8320,10.0,9.34,136.0,,'11111222,11111222,99999999' 
WAVCIS,ioos:station:WAVCIS:CSI15:1,2010-06-03T15:00:00Z,28.8332,-90.8320,10.0,9.6,145.0,,'11111222,11111222,99999999' 
WAVCIS,ioos:station:WAVCIS:CSI15:1,2010-06-03T16:00:00Z,28.8332,-90.8320,10.0,6.196,115.0,,'11111222,11111222,99999999' 
WAVCIS,ioos:station:WAVCIS:CSI15:1,2010-06-03T17:00:00Z,28.8332,-90.8320,10.0,7.45,182.0,,'11111222,11111222,99999999' 
WAVCIS,ioos:station:WAVCIS:CSI15:1,2010-06-03T18:00:00Z,28.8332,-90.8320,10.0,5.706,136.0,,'11111222,11111222,99999999' 
WAVCIS,ioos:station:WAVCIS:CSI15:1,2010-06-03T19:00:00Z,28.8332,-90.8320,10.0,5.392,198.0,,'11111222,11111222,99999999' 
WAVCIS,ioos:station:WAVCIS:CSI15:1,2010-06-03T20:00:00Z,28.8332,-90.8320,10.0,6.704,190.0,,'11111222,11111222,99999999' 
WAVCIS,ioos:station:WAVCIS:CSI15:1,2010-06-03T21:00:00Z,28.8332,-90.8320,10.0,6.808,186.0,,'11111222,11111222,99999999' 
WAVCIS,ioos:station:WAVCIS:CSI15:1,2010-06-03T22:00:00Z,28.8332,-90.8320,10.0,7.61,193.0,,'11111222,11111222,99999999' 
WAVCIS,ioos:station:WAVCIS:CSI15:1,2010-06-03T23:00:00Z,28.8332,-90.8320,10.0,6.776,196.0,,'11111222,11111222,99999999' 
WAVCIS,ioos:station:WAVCIS:CSI15:1,2010-06-04T00:00:00Z,28.8332,-90.8320,10.0,6.615,197.0,,'11111222,11111222,99999999' 
WAVCIS,ioos:station:WAVCIS:CSI15:1,2010-06-04T01:00:00Z,28.8332,-90.8320,10.0,8.26,190.0,,'11111222,11111222,99999999' 
WAVCIS,ioos:station:WAVCIS:CSI15:1,2010-06-04T02:00:00Z,28.8332,-90.8320,10.0,7.13,192.0,,'11111222,11111222,99999999' 
WAVCIS,ioos:station:WAVCIS:CSI15:1,2010-06-04T03:00:00Z,28.8332,-90.8320,10.0,6.458,190.0,,'11111222,11111222,99999999' 
WAVCIS,ioos:station:WAVCIS:CSI15:1,2010-06-04T04:00:00Z,28.8332,-90.8320,10.0,6.19,192.0,,'11111222,11111222,99999999' 
WAVCIS,ioos:station:WAVCIS:CSI15:1,2010-06-04T05:00:00Z,28.8332,-90.8320,10.0,4.242,197.0,,'11111222,11111222,99999999' 
WAVCIS,ioos:station:WAVCIS:CSI15:1,2010-06-04T06:00:00Z,28.8332,-90.8320,10.0,4.105,159.0,,'11111222,11111222,99999999' 
WAVCIS,ioos:station:WAVCIS:CSI15:1,2010-06-04T07:00:00Z,28.8332,-90.8320,10.0,4.845,145.0,,'11111222,11111222,99999999' 
WAVCIS,ioos:station:WAVCIS:CSI15:1,2010-06-04T08:00:00Z,28.8332,-90.8320,10.0,6.208,153.0,,'11111222,11111222,99999999' 
WAVCIS,ioos:station:WAVCIS:CSI15:1,2010-06-04T09:00:00Z,28.8332,-90.8320,10.0,7.18,144.0,,'11111222,11111222,99999999' 
WAVCIS,ioos:station:WAVCIS:CSI15:1,2010-06-04T10:00:00Z,28.8332,-90.8320,10.0,7.46,145.0,,'11111222,11111222,99999999' 
WAVCIS,ioos:station:WAVCIS:CSI15:1,2010-06-04T11:00:00Z,28.8332,-90.8320,10.0,9.45,144.0,,'11111222,11111222,99999999' 
WAVCIS,ioos:station:WAVCIS:CSI15:1,2010-06-04T12:00:00Z,28.8332,-90.8320,10.0,10.61,140.0,,'11111222,11111222,99999999' 
WAVCIS,ioos:station:WAVCIS:CSI15:1,2010-06-04T13:00:00Z,28.8332,-90.8320,10.0,10.69,144.0,,'11111222,11111222,99999999' 
WAVCIS,ioos:station:WAVCIS:CSI15:1,2010-06-04T14:00:00Z,28.8332,-90.8320,10.0,11.53,139.0,,'11111222,11111222,99999999' 
WAVCIS,ioos:station:WAVCIS:CSI15:1,2010-06-04T15:00:00Z,28.8332,-90.8320,10.0,11.23,146.0,,'11111222,11111222,99999999' 
WAVCIS,ioos:station:WAVCIS:CSI15:1,2010-06-04T16:00:00Z,28.8332,-90.8320,10.0,11.91,143.0,,'11111222,11111222,99999999' 
WAVCIS,ioos:station:WAVCIS:CSI15:1,2010-06-04T17:00:00Z,28.8332,-90.8320,10.0,13.98,138.0,,'11111222,11111222,99999999' 
WAVCIS,ioos:station:WAVCIS:CSI15:1,2010-06-04T18:00:00Z,28.8332,-90.8320,10.0,12.16,148.0,,'11111222,11111222,99999999' 
WAVCIS,ioos:station:WAVCIS:CSI15:1,2010-06-04T19:00:00Z,28.8332,-90.8320,10.0,8.08,128.0,,'11111222,11111222,99999999' 
WAVCIS,ioos:station:WAVCIS:CSI15:1,2010-06-04T20:00:00Z,28.8332,-90.8320,10.0,12.18,196.0,,'11111222,11111222,99999999' 
WAVCIS,ioos:station:WAVCIS:CSI15:1,2010-06-04T21:00:00Z,28.8332,-90.8320,10.0,6.673,186.0,,'11111222,11111222,99999999' 
WAVCIS,ioos:station:WAVCIS:CSI15:1,2010-06-04T22:00:00Z,28.8332,-90.8320,10.0,8.77,165.0,,'11111222,11111222,99999999' 
WAVCIS,ioos:station:WAVCIS:CSI15:1,2010-06-04T23:00:00Z,28.8332,-90.8320,10.0,8.83,160.0,,'11111222,11111222,99999999' 
WAVCIS,ioos:station:WAVCIS:CSI15:1,2010-06-05T00:00:00Z,28.8332,-90.8320,10.0,8.71,168.0,,'11111222,11111222,99999999' 
WAVCIS,ioos:station:WAVCIS:CSI15:1,2010-06-05T01:00:00Z,28.8332,-90.8320,10.0,8.63,178.0,,'11111222,11111222,99999999' 
WAVCIS,ioos:station:WAVCIS:CSI15:1,2010-06-05T02:00:00Z,28.8332,-90.8320,10.0,8.08,173.0,,'11111222,11111222,99999999' 
WAVCIS,ioos:station:WAVCIS:CSI15:1,2010-06-05T03:00:00Z,28.8332,-90.8320,10.0,6.798,176.0,,'11111222,11111222,99999999' 
WAVCIS,ioos:station:WAVCIS:CSI15:1,2010-06-05T04:00:00Z,28.8332,-90.8320,10.0,6.152,168.0,,'11111222,11111222,99999999' 
WAVCIS,ioos:station:WAVCIS:CSI15:1,2010-06-05T05:00:00Z,28.8332,-90.8320,10.0,5.36,163.0,,'11111222,11111222,99999999' 
WAVCIS,ioos:station:WAVCIS:CSI15:1,2010-06-05T06:00:00Z,28.8332,-90.8320,10.0,5.717,157.0,,'11111222,11111222,99999999' 
WAVCIS,ioos:station:WAVCIS:CSI15:1,2010-06-05T07:00:00Z,28.8332,-90.8320,10.0,6.037,152.0,,'11111222,11111222,99999999' 
WAVCIS,ioos:station:WAVCIS:CSI15:1,2010-06-05T08:00:00Z,28.8332,-90.8320,10.0,6.222,154.0,,'11111222,11111222,99999999' 
WAVCIS,ioos:station:WAVCIS:CSI15:1,2010-06-05T09:00:00Z,28.8332,-90.8320,10.0,6.854,157.0,,'11111222,11111222,99999999' 
WAVCIS,ioos:station:WAVCIS:CSI15:1,2010-06-05T10:00:00Z,28.8332,-90.8320,10.0,8.62,151.0,,'11111222,11111222,99999999' 
WAVCIS,ioos:station:WAVCIS:CSI15:1,2010-06-05T11:00:00Z,28.8332,-90.8320,10.0,8.71,156.0,,'11111222,11111222,99999999' 
WAVCIS,ioos:station:WAVCIS:CSI15:1,2010-06-05T12:00:00Z,28.8332,-90.8320,10.0,8.45,153.0,,'11111222,11111222,99999999' 
WAVCIS,ioos:station:WAVCIS:CSI15:1,2010-06-05T13:00:00Z,28.8332,-90.8320,10.0,7.93,154.0,,'11111222,11111222,99999999' 
WAVCIS,ioos:station:WAVCIS:CSI15:1,2010-06-05T14:00:00Z,28.8332,-90.8320,10.0,6.99,141.0,,'11111222,11111222,99999999' 
WAVCIS,ioos:station:WAVCIS:CSI15:1,2010-06-05T15:00:00Z,28.8332,-90.8320,10.0,6.789,142.0,,'11111222,11111222,99999999' 
WAVCIS,ioos:station:WAVCIS:CSI15:1,2010-06-05T16:00:00Z,28.8332,-90.8320,10.0,6.305,143.0,,'11111222,11111222,99999999' 
WAVCIS,ioos:station:WAVCIS:CSI15:1,2010-06-05T17:00:00Z,28.8332,-90.8320,10.0,6.429,140.0,,'11111222,11111222,99999999' 
WAVCIS,ioos:station:WAVCIS:CSI15:1,2010-06-05T18:00:00Z,28.8332,-90.8320,10.0,6.823,147.0,,'11111222,11111222,99999999' 
WAVCIS,ioos:station:WAVCIS:CSI15:1,2010-06-05T19:00:00Z,28.8332,-90.8320,10.0,6.142,155.0,,'11111222,11111222,99999999' 
WAVCIS,ioos:station:WAVCIS:CSI15:1,2010-06-05T20:00:00Z,28.8332,-90.8320,10.0,6.736,157.0,,'11111222,11111222,99999999' 
WAVCIS,ioos:station:WAVCIS:CSI15:1,2010-06-05T21:00:00Z,28.8332,-90.8320,10.0,6.275,160.0,,'11111222,11111222,99999999' 
WAVCIS,ioos:station:WAVCIS:CSI15:1,2010-06-05T22:00:00Z,28.8332,-90.8320,10.0,7.34,165.0,,'11111222,11111222,99999999' 
WAVCIS,ioos:station:WAVCIS:CSI15:1,2010-06-05T23:00:00Z,28.8332,-90.8320,10.0,7.29,161.0,,'11111222,11111222,99999999' 
WAVCIS,ioos:station:WAVCIS:CSI15:1,2010-06-06T00:00:00Z,28.8332,-90.8320,10.0,5.982,177.0,,'11111222,11111222,99999999' 
WAVCIS,ioos:station:WAVCIS:CSI15:1,2010-06-06T01:00:00Z,28.8332,-90.8320,10.0,5.663,176.0,,'11111222,11111222,99999999' 
WAVCIS,ioos:station:WAVCIS:CSI15:1,2010-06-06T02:00:00Z,28.8332,-90.8320,10.0,5.672,168.0,,'11111222,11111222,99999999' 
WAVCIS,ioos:station:WAVCIS:CSI15:1,2010-06-06T03:00:00Z,28.8332,-90.8320,10.0,4.597,159.0,,'11111222,11111222,99999999' 
WAVCIS,ioos:station:WAVCIS:CSI15:1,2010-06-06T04:00:00Z,28.8332,-90.8320,10.0,4.732,151.0,,'11111222,11111222,99999999' 
WAVCIS,ioos:station:WAVCIS:CSI15:1,2010-06-06T05:00:00Z,28.8332,-90.8320,10.0,6.571,147.0,,'11111222,11111222,99999999' 
WAVCIS,ioos:station:WAVCIS:CSI15:1,2010-06-06T06:00:00Z,28.8332,-90.8320,10.0,7.68,151.0,,'11111222,11111222,99999999' 
WAVCIS,ioos:station:WAVCIS:CSI15:1,2010-06-06T07:00:00Z,28.8332,-90.8320,10.0,7.02,155.0,,'11111222,11111222,99999999' 
WAVCIS,ioos:station:WAVCIS:CSI15:1,2010-06-06T08:00:00Z,28.8332,-90.8320,10.0,7.03,159.0,,'11111222,11111222,99999999' 
WAVCIS,ioos:station:WAVCIS:CSI15:1,2010-06-06T09:00:00Z,28.8332,-90.8320,10.0,5.655,172.0,,'11111222,11111222,99999999' 
WAVCIS,ioos:station:WAVCIS:CSI15:1,2010-06-06T10:00:00Z,28.8332,-90.8320,10.0,6.895,168.0,,'11111222,11111222,99999999' 
WAVCIS,ioos:station:WAVCIS:CSI15:1,2010-06-06T11:00:00Z,28.8332,-90.8320,10.0,4.913,158.0,,'11111222,11111222,99999999' 
WAVCIS,ioos:station:WAVCIS:CSI15:1,2010-06-06T12:00:00Z,28.8332,-90.8320,10.0,4.828,141.0,,'11111222,11111222,99999999' 
WAVCIS,ioos:station:WAVCIS:CSI15:1,2010-06-06T13:00:00Z,28.8332,-90.8320,10.0,5.105,142.0,,'11111222,11111222,99999999' 
WAVCIS,ioos:station:WAVCIS:CSI15:1,2010-06-06T14:00:00Z,28.8332,-90.8320,10.0,3.279,137.0,,'11111222,11111222,99999999' 
WAVCIS,ioos:station:WAVCIS:CSI15:1,2010-06-06T15:00:00Z,28.8332,-90.8320,10.0,4.483,139.0,,'11111222,11111222,99999999' 
WAVCIS,ioos:station:WAVCIS:CSI15:1,2010-06-06T16:00:00Z,28.8332,-90.8320,10.0,2.584,142.0,,'11111222,11111222,99999999' 
WAVCIS,ioos:station:WAVCIS:CSI15:1,2010-06-06T17:00:00Z,28.8332,-90.8320,10.0,4.108,145.0,,'11111222,11111222,99999999' 
WAVCIS,ioos:station:WAVCIS:CSI15:1,2010-06-06T18:00:00Z,28.8332,-90.8320,10.0,2.739,138.0,,'11111222,11111222,99999999' 
WAVCIS,ioos:station:WAVCIS:CSI15:1,2010-06-06T19:00:00Z,28.8332,-90.8320,10.0,5.33,144.0,,'11111222,11111222,99999999' 
WAVCIS,ioos:station:WAVCIS:CSI15:1,2010-06-06T20:00:00Z,28.8332,-90.8320,10.0,4.014,160.0,,'11111222,11111222,99999999' 
WAVCIS,ioos:station:WAVCIS:CSI15:1,2010-06-06T21:00:00Z,28.8332,-90.8320,10.0,4.245,176.0,,'11111222,11111222,99999999' 
WAVCIS,ioos:station:WAVCIS:CSI15:1,2010-06-06T22:00:00Z,28.8332,-90.8320,10.0,3.701,145.0,,'11111222,11111222,99999999' 
WAVCIS,ioos:station:WAVCIS:CSI15:1,2010-06-06T23:00:00Z,28.8332,-90.8320,10.0,5.7,163.0,,'11111222,11111222,99999999' 
WAVCIS,ioos:station:WAVCIS:CSI15:1,2010-06-07T00:00:00Z,28.8332,-90.8320,10.0,2.86,166.0,,'11111222,11111222,99999999' 
WAVCIS,ioos:station:WAVCIS:CSI15:1,2010-06-07T01:00:00Z,28.8332,-90.8320,10.0,1.218,174.0,,'11111222,11111222,99999999' 
WAVCIS,ioos:station:WAVCIS:CSI15:1,2010-06-07T02:00:00Z,28.8332,-90.8320,10.0,6.182,155.0,,'11111222,11111222,99999999' 
WAVCIS,ioos:station:WAVCIS:CSI15:1,2010-06-07T03:00:00Z,28.8332,-90.8320,10.0,2.607,166.0,,'11111222,11111222,99999999' 
WAVCIS,ioos:station:WAVCIS:CSI15:1,2010-06-07T04:00:00Z,28.8332,-90.8320,10.0,2.736,201.0,,'11111222,11111222,99999999' 
WAVCIS,ioos:station:WAVCIS:CSI15:1,2010-06-07T05:00:00Z,28.8332,-90.8320,10.0,5.581,189.0,,'11111222,11111222,99999999' 
WAVCIS,ioos:station:WAVCIS:CSI15:1,2010-06-07T06:00:00Z,28.8332,-90.8320,10.0,6.286,192.0,,'11111222,11111222,99999999' 
WAVCIS,ioos:station:WAVCIS:CSI15:1,2010-06-07T07:00:00Z,28.8332,-90.8320,10.0,4.289,216.0,,'11111222,11111222,99999999' 
WAVCIS,ioos:station:WAVCIS:CSI15:1,2010-06-07T08:00:00Z,28.8332,-90.8320,10.0,3.873,204.0,,'11111222,11111222,99999999' 
WAVCIS,ioos:station:WAVCIS:CSI15:1,2010-06-07T09:00:00Z,28.8332,-90.8320,10.0,2.806,215.0,,'11111222,11111222,99999999' 
WAVCIS,ioos:station:WAVCIS:CSI15:1,2010-06-07T10:00:00Z,28.8332,-90.8320,10.0,1.923,213.0,,'11111222,11111222,99999999' 
WAVCIS,ioos:station:WAVCIS:CSI15:1,2010-06-07T11:00:00Z,28.8332,-90.8320,10.0,2.461,214.0,,'11111222,11111222,99999999' 
WAVCIS,ioos:station:WAVCIS:CSI15:1,2010-06-07T12:00:00Z,28.8332,-90.8320,10.0,2.996,200.0,,'11111222,11111222,99999999' 
WAVCIS,ioos:station:WAVCIS:CSI15:1,2010-06-07T13:00:00Z,28.8332,-90.8320,10.0,2.443,208.0,,'11111222,11111222,99999999' 
WAVCIS,ioos:station:WAVCIS:CSI15:1,2010-06-07T14:00:00Z,28.8332,-90.8320,10.0,0.676,356.0,,'11111222,11111222,99999999' 
WAVCIS,ioos:station:WAVCIS:CSI15:1,2010-06-07T15:00:00Z,28.8332,-90.8320,10.0,0.301,191.0,,'11111222,11111222,99999999' 
WAVCIS,ioos:station:WAVCIS:CSI15:1,2010-06-07T16:00:00Z,28.8332,-90.8320,10.0,0.456,186.0,,'11111222,11111222,99999999' 
WAVCIS,ioos:station:WAVCIS:CSI15:1,2010-06-07T17:00:00Z,28.8332,-90.8320,10.0,1.513,208.0,,'11111222,11111222,99999999' 
WAVCIS,ioos:station:WAVCIS:CSI15:1,2010-06-07T18:00:00Z,28.8332,-90.8320,10.0,2.747,190.0,,'11111222,11111222,99999999' 
WAVCIS,ioos:station:WAVCIS:CSI15:1,2010-06-07T19:00:00Z,28.8332,-90.8320,10.0,3.395,193.0,,'11111222,11111222,99999999' 
WAVCIS,ioos:station:WAVCIS:CSI15:1,2010-06-07T20:00:00Z,28.8332,-90.8320,10.0,2.686,201.0,,'11111222,11111222,99999999' 
WAVCIS,ioos:station:WAVCIS:CSI15:1,2010-06-07T21:00:00Z,28.8332,-90.8320,10.0,3.626,201.0,,'11111222,11111222,99999999' 
WAVCIS,ioos:station:WAVCIS:CSI15:1,2010-06-07T22:00:00Z,28.8332,-90.8320,10.0,3.254,193.0,,'11111222,11111222,99999999' 
WAVCIS,ioos:station:WAVCIS:CSI15:1,2010-06-07T23:00:00Z,28.8332,-90.8320,10.0,1.671,204.0,,'11111222,11111222,99999999' 
WAVCIS,ioos:station:WAVCIS:CSI15:1,2010-06-08T00:00:00Z,28.8332,-90.8320,10.0,3.276,187.0,,'11111222,11111222,99999999' 
WAVCIS,ioos:station:WAVCIS:CSI15:1,2010-06-08T01:00:00Z,28.8332,-90.8320,10.0,3.292,162.0,,'11111222,11111222,99999999' 
WAVCIS,ioos:station:WAVCIS:CSI15:1,2010-06-08T02:00:00Z,28.8332,-90.8320,10.0,0.801,2.0,,'11111222,11111222,99999999' 
WAVCIS,ioos:station:WAVCIS:CSI15:1,2010-06-08T03:00:00Z,28.8332,-90.8320,10.0,0.298,115.0,,'11111222,11111222,99999999' 
WAVCIS,ioos:station:WAVCIS:CSI15:1,2010-06-08T04:00:00Z,28.8332,-90.8320,10.0,0.662,101.0,,'11111222,11111222,99999999' 
WAVCIS,ioos:station:WAVCIS:CSI15:1,2010-06-08T05:00:00Z,28.8332,-90.8320,10.0,3.009,179.0,,'11111222,11111222,99999999' 
WAVCIS,ioos:station:WAVCIS:CSI15:1,2010-06-08T06:00:00Z,28.8332,-90.8320,10.0,3.585,153.0,,'11111222,11111222,99999999' 
WAVCIS,ioos:station:WAVCIS:CSI15:1,2010-06-08T07:00:00Z,28.8332,-90.8320,10.0,6.167,146.0,,'11111222,11111222,99999999' 
WAVCIS,ioos:station:WAVCIS:CSI15:1,2010-06-08T08:00:00Z,28.8332,-90.8320,10.0,6.776,157.0,,'11111222,11111222,99999999' 
WAVCIS,ioos:station:WAVCIS:CSI15:1,2010-06-08T09:00:00Z,28.8332,-90.8320,10.0,4.951,158.0,,'11111222,11111222,99999999' 
WAVCIS,ioos:station:WAVCIS:CSI15:1,2010-06-08T10:00:00Z,28.8332,-90.8320,10.0,4.696,155.0,,'11111222,11111222,99999999' 
WAVCIS,ioos:station:WAVCIS:CSI15:1,2010-06-08T11:00:00Z,28.8332,-90.8320,10.0,5.264,166.0,,'11111222,11111222,99999999' 
WAVCIS,ioos:station:WAVCIS:CSI15:1,2010-06-08T12:00:00Z,28.8332,-90.8320,10.0,4.062,172.0,,'11111222,11111222,99999999' 
WAVCIS,ioos:station:WAVCIS:CSI15:1,2010-06-08T13:00:00Z,28.8332,-90.8320,10.0,3.761,166.0,,'11111222,11111222,99999999' 
WAVCIS,ioos:station:WAVCIS:CSI15:1,2010-06-08T14:00:00Z,28.8332,-90.8320,10.0,3.283,177.0,,'11111222,11111222,99999999' 
WAVCIS,ioos:station:WAVCIS:CSI15:1,2010-06-08T15:00:00Z,28.8332,-90.8320,10.0,1.699,168.0,,'11111222,11111222,99999999' 
WAVCIS,ioos:station:WAVCIS:CSI15:1,2010-06-08T16:00:00Z,28.8332,-90.8320,10.0,0.883,137.0,,'11111222,11111222,99999999' 
WAVCIS,ioos:station:WAVCIS:CSI15:1,2010-06-08T17:00:00Z,28.8332,-90.8320,10.0,0.874,122.0,,'11111222,11111222,99999999' 
WAVCIS,ioos:station:WAVCIS:CSI15:1,2010-06-08T18:00:00Z,28.8332,-90.8320,10.0,2.47,106.0,,'11111222,11111222,99999999' 
WAVCIS,ioos:station:WAVCIS:CSI15:1,2010-06-08T19:00:00Z,28.8332,-90.8320,10.0,2.658,112.0,,'11111222,11111222,99999999' 
WAVCIS,ioos:station:WAVCIS:CSI15:1,2010-06-08T20:00:00Z,28.8332,-90.8320,10.0,3.67,135.0,,'11111222,11111222,99999999' 
WAVCIS,ioos:station:WAVCIS:CSI15:1,2010-06-08T21:00:00Z,28.8332,-90.8320,10.0,4.102,120.0,,'11111222,11111222,99999999' 
WAVCIS,ioos:station:WAVCIS:CSI15:1,2010-06-08T22:00:00Z,28.8332,-90.8320,10.0,3.752,123.0,,'11111222,11111222,99999999' 
WAVCIS,ioos:station:WAVCIS:CSI15:1,2010-06-08T23:00:00Z,28.8332,-90.8320,10.0,3.611,130.0,,'11111222,11111222,99999999' 
WAVCIS,ioos:station:WAVCIS:CSI15:1,2010-06-09T00:00:00Z,28.8332,-90.8320,10.0,4.952,114.0,,'11111222,11111222,99999999' 
WAVCIS,ioos:station:WAVCIS:CSI15:1,2010-06-09T01:00:00Z,28.8332,-90.8320,10.0,5.6,134.0,,'11111222,11111222,99999999' 
WAVCIS,ioos:station:WAVCIS:CSI15:1,2010-06-09T02:00:00Z,28.8332,-90.8320,10.0,6.077,133.0,,'11111222,11111222,99999999' 
WAVCIS,ioos:station:WAVCIS:CSI15:1,2010-06-09T03:00:00Z,28.8332,-90.8320,10.0,7.12,125.0,,'11111222,11111222,99999999' 
WAVCIS,ioos:station:WAVCIS:CSI15:1,2010-06-09T04:00:00Z,28.8332,-90.8320,10.0,7.73,129.0,,'11111222,11111222,99999999' 